Flag Weather past 2 weeks in Kalispell, Montana, U.S.A.

Now
35 °F

Fog.


Feels Like: 35 °F
Forecast: 33 / 40 °F
Wind: No wind

Location: Kalispell - Glacier Park International

Current Time: Nov 25, 2014 at 2:54:13 PM

Latest Report: Nov 25, 2014 at 1:55 PM


Visibility: 6 mi

Pressure: 30.14 "Hg

Humidity: 92%

Dew point: 33 °F

Location of KalispellLocation

Historic Weather in Kalispell — Graph

°F

Kalispell temperature yesterday

Maximum temperature yesterday: 38 °F (at 11:55 AM)
Minimum temperature yesterday: 30 °F (at 7:55 AM)
Average temperature yesterday: 34 °F

Past Weeks' High & Low Weather Summary

 TemperatureHumidityPressure
High43 °F (Nov 22, 2:55 PM)100% (Nov 20, 4:04 PM)30.79 "Hg (Nov 20, 4:04 PM)
Low-2 °F (Nov 14, 6:55 AM)34% (Nov 14, 2:55 PM)29.35 "Hg (Nov 22, 4:04 AM)
Average20 °F79%30.30 "Hg
* Reported Nov 10 12:55 PM — Nov 25 12:55 PM, Kalispell, Weather by CustomWeather, © 2014

Note: Actual official high and low records may vary slightly from our data, if they occured in-between our weather recording intervals... More about our weather records

Advertising

Kalispell weather history for previous 24 hours

 ConditionsComfort  
Time TempWeatherWind HumidityBarometerVisibility
12:55 PM
Nov 25
35 °FFog.No wind92%30.14 "Hg6 mi
11:55 AM33 °FFog.No wind96%30.15 "Hg6 mi
10:58 AM33 °FFog.No wind96%30.06 "Hg6 mi
9:55 AM32 °FIce fog.No wind100%30.12 "Hg6 mi
8:55 AM31 °FIce fog.No wind100%30.09 "Hg6 mi
7:55 AM32 °FMostly cloudy.No wind100%30.08 "Hg8 mi
6:55 AM33 °FMostly cloudy.No wind96%30.05 "Hg10 mi
5:55 AM34 °FMostly cloudy.3 mph92%30.02 "Hg10 mi
4:55 AM35 °FMostly cloudy.6 mph92%30.01 "Hg10 mi
3:55 AM34 °FLight rain. Overcast.9 mph92%29.98 "Hg10 mi
2:55 AM34 °FMostly cloudy.8 mph92%30.00 "Hg10 mi
1:55 AM33 °FLight snow. Fog.12 mph96%30.00 "Hg5 mi
12:55 AM33 °FLight snow. Fog.10 mph96%30.04 "Hg2 mi
11:55 PM
Nov 24
33 °FLight snow. Fog.12 mph96%30.06 "Hg2 mi
10:55 PM33 °FLight snow. Fog.10 mph96%30.08 "Hg1 mi
9:55 PM33 °FLight snow. Fog.14 mph92%30.12 "Hg2 mi
8:55 PM33 °FLight snow. Fog.10 mph96%30.17 "Hg2 mi
7:55 PM33 °FLight snow. Fog.14 mph92%30.22 "Hg2 mi
6:55 PM34 °FMostly cloudy.12 mph88%30.25 "Hg10 mi
5:55 PM34 °FMostly cloudy.12 mph82%30.27 "Hg10 mi
4:55 PM34 °FOvercast.8 mph82%30.29 "Hg10 mi
3:55 PM36 °FOvercast.15 mph70%30.32 "Hg10 mi
2:55 PM38 °FOvercast.7 mph63%30.29 "Hg10 mi
Weather by CustomWeather, © 2014

See weather overviewHow to use our weather pages